Flag for Germany Weather past 2 weeks in Berlin, Berlin, Germany

Now
43 °F

Quite cool.


Feels Like: 41 °F
Forecast: 39 / 50 °F
Wind: 3 mph from Southwest

Location: Berlin-Tempelhof

Current Time: Mar 27, 2015 at 9:01:16 AM

Latest Report: Mar 27, 2015 at 8:00 AM


Visibility: N/A

Pressure: 29.86 "Hg

Humidity: 91%

Dew point: 40 °F

Location of BerlinLocation

Historic Weather in Berlin — Graph

°F

Berlin temperature yesterday

Maximum temperature yesterday: 51 °F (at 12:00 AM)
Minimum temperature yesterday: 44 °F (at 11:00 PM)
Average temperature yesterday: 47 °F

Past Weeks' High & Low Weather Summary

 TemperatureHumidityPressure
High62 °F (Mar 17, 4:00 PM)96% (Mar 27, 4:00 AM)30.52 "Hg (Mar 27, 4:00 AM)
Low28 °F (Mar 13, 6:00 AM)19% (Mar 18, 4:00 PM)29.64 "Hg (Mar 26, 4:00 AM)
Average43 °F68%30.20 "Hg
* Reported Mar 12 8:00 AM — Mar 27 8:00 AM, Berlin, Weather by CustomWeather, © 2015

Note: Actual official high and low records may vary slightly from our data, if they occured in-between our weather recording intervals... More about our weather records

Advertising

Berlin weather history for previous 24 hours

 ConditionsComfort  
Time TempWeatherWind HumidityBarometerVisibility
8:00 AM
Fri, Mar 27
43 °FQuite cool.3 mph91%29.86 "HgN/A
7:00 AM42 °FQuite cool.2 mph90%29.84 "HgN/A
6:00 AM42 °FQuite cool.3 mph92%29.82 "HgN/A
5:00 AM43 °FQuite cool.2 mph92%29.80 "HgN/A
4:00 AM42 °FQuite cool.2 mph96%29.79 "HgN/A
3:00 AM43 °FQuite cool.1 mph94%29.78 "HgN/A
2:00 AM43 °FQuite cool.1 mph93%29.78 "HgN/A
1:00 AM43 °FQuite cool.1 mph93%29.78 "HgN/A
12:00 AM43 °FQuite cool.1 mph93%29.79 "HgN/A
11:00 PM
Thu, Mar 26
44 °FQuite cool.1 mph89%29.79 "HgN/A
10:00 PM44 °FQuite cool.2 mph85%29.79 "HgN/A
9:00 PM44 °FQuite cool.2 mph84%29.79 "HgN/A
8:00 PM44 °FQuite cool.2 mph86%29.78 "HgN/A
7:00 PM45 °FQuite cool.3 mph86%29.78 "HgN/A
6:00 PM46 °FCool.5 mph80%29.77 "HgN/A
5:00 PM46 °FCool.3 mph78%29.76 "HgN/A
4:00 PM46 °FCool.6 mph81%29.75 "HgN/A
3:00 PM47 °FCool.5 mph81%29.73 "HgN/A
2:00 PM46 °FCool.7 mph83%29.73 "HgN/A
1:00 PM46 °FCool.8 mph85%29.72 "HgN/A
12:00 PM46 °FCool.7 mph90%29.71 "HgN/A
11:00 AM46 °FCool.7 mph90%29.70 "HgN/A
10:00 AM46 °FCool.5 mph90%29.70 "HgN/A
9:00 AM46 °FCool.6 mph83%29.69 "HgN/A
Weather by CustomWeather, © 2015

See weather overviewHow to use our weather pages